Hourly Data Report for October 01, 2017

All times are specified in Local Standard Time (LST). Add 1 hour to adjust for Daylight Saving Time where and when it is observed.

IQALUIT CLIMATE
NUNAVUT

63°44'50.000" N
68°32'40.000" W
33.50 m
2402592
71321
XFB

Download Data

Hourly Data (October 2017)
Hourly Data Report for October 1, 2017
Temp Definition
°C
Dew Point Temp Definition
°C
Rel Hum Definition
%
Wind Dir Definition
10's deg

Wind Spd Definition
km/h
Visibility Definition
km
Stn Press Definition
kPa
Hmdx Definition


Wind Chill Definition


Weather Definition


TIME
00:00 -0.6 -4.0 78 5 70   98.70   -10 LegendNANA
01:00 -0.4 -4.3 75 5 75   98.87   -10 LegendNANA
02:00 0.0 -4.4 72 5 72   99.10   -9 LegendNANA
03:00 0.1 -5.0 69 5 61   99.28     LegendNANA
04:00 0.1 -5.4 66 5 47   99.60     LegendNANA
05:00 -0.1 -5.1 69 33 24   99.98   -6 LegendNANA
06:00 -0.4 -4.8 72 35 29   100.16   -7 LegendNANA
07:00 -1.0 -5.7 71 34 37   100.32   -8 LegendNANA
08:00 -0.4 -5.3 69 34 26   100.47   -7 LegendNANA
09:00 1.2 -5.1 63 30 14   100.61     LegendNANA
10:00 1.9 -4.9 60 32 27   100.74     LegendNANA
11:00 3.4 -4.2 58 35 19   100.81     LegendNANA
12:00 1.9 -4.7 62 32 31   100.90     LegendNANA
13:00 1.9 -3.6 67 33 33   100.97     LegendNANA
14:00 2.1 -3.5 66 34 34   101.07     LegendNANA
15:00 2.1 -1.5 77 33 41   101.17     LegendNANA
16:00 1.6 -1.4 80 33 33   101.30     LegendNANA
17:00 1.2 -1.2 84 33 26   101.40     LegendNANA
18:00 0.5 -1.3 88 33 30   101.47     LegendNANA
19:00 -0.3 -1.9 89 34 31   101.55   -7 LegendNANA
20:00 -1.1 -2.5 90 31 19   101.63   -6 LegendNANA
21:00 -0.9 -3.1 85 32 28   101.69   -7 LegendNANA
22:00 -1.1 -4.0 81 30 25   101.72   -7 LegendNANA
23:00 -1.1 -3.1 86 31 19   101.75   -6 LegendNANA

Notes on Data Quality.

Legend

  • E = Estimated
  • M = Missing
  • NA = Not Available
  • ‡ = Partner data that is not subject to review by the National Climate Archives
Date modified: